Total_Precipitation_Accumulation
0.00 0.00 0.00 0.00 0.01 0.03 0.04 0.03 0.02 0.02 0.02 0.02 0.02 0.02 0.02 0.02 0.02 0.02 0.02 0.02 0.02 0.02 0.02 0.02 0.03 0.04 0.06 0.09 0.12 0.13 0.13 0.13 0.18 0.22 0.20 0.20 0.23 0.27 0.26 0.25 0.28 0.32 0.35
0.00 0.00 0.00 0.00 0.00 0.02 0.04 0.04 0.03 0.02 0.01 0.01 0.01 0.01 0.01 0.01 0.01 0.02 0.02 0.02 0.02 0.02 0.02 0.02 0.03 0.03 0.03 0.03 0.03 0.05 0.07 0.06 0.08 0.16 0.21 0.18 0.16 0.16 0.17 0.18 0.22 0.28 0.35
0.00 0.00 0.00 0.00 0.00 0.01 0.02 0.04 0.03 0.02 0.01 0.01 0.01 0.01 0.01 0.01 0.01 0.02 0.02 0.02 0.02 0.02 0.02 0.02 0.02 0.02 0.03 0.03 0.03 0.03 0.05 0.06 0.05 0.10 0.26 0.35 0.25 0.16 0.12 0.14 0.16 0.19 0.21
0.00 0.00 0.00 0.00 0.00 0.00 0.01 0.03 0.05 0.03 0.02 0.02 0.01 0.01 0.01 0.01 0.01 0.01 0.01 0.01 0.01 0.01 0.02 0.02 0.02 0.02 0.03 0.03 0.04 0.04 0.05 0.08 0.08 0.07 0.12 0.23 0.28 0.35 0.22 0.07 0.06 0.08 0.10
0.00 0.00 0.00 0.00 0.00 0.00 0.01 0.02 0.05 0.04 0.02 0.02 0.01 0.01 0.01 0.01 0.01 0.00 0.00 0.01 0.01 0.01 0.02 0.02 0.02 0.03 0.03 0.04 0.04 0.05 0.06 0.08 0.11 0.13 0.13 0.12 0.13 0.23 0.38 0.18 0.04 0.03 0.05
0.00 0.00 0.00 0.00 0.00 0.00 0.00 0.01 0.03 0.05 0.03 0.02 0.02 0.01 0.01 0.01 0.01 0.01 0.01 0.01 0.01 0.01 0.01 0.02 0.03 0.04 0.04 0.04 0.06 0.07 0.08 0.09 0.11 0.14 0.16 0.21 0.25 0.23 0.32 0.30 0.12 0.07 0.04
0.00 0.00 0.00 0.00 0.00 0.00 0.00 0.01 0.02 0.04 0.04 0.03 0.02 0.02 0.01 0.01 0.01 0.01 0.01 0.01 0.01 0.01 0.02 0.03 0.04 0.05 0.06 0.07 0.08 0.10 0.11 0.12 0.14 0.15 0.16 0.19 0.22 0.25 0.31 0.36 0.25 0.14 0.07
0.00 0.00 0.00 0.00 0.00 0.00 0.00 0.00 0.01 0.02 0.02 0.03 0.03 0.03 0.02 0.01 0.01 0.01 0.01 0.01 0.02 0.02 0.03 0.04 0.05 0.07 0.08 0.10 0.11 0.13 0.14 0.16 0.17 0.17 0.19 0.22 0.21 0.24 0.30 0.38 0.43 0.33 0.13
0.00 0.00 0.00 0.00 0.00 0.00 0.00 0.00 0.01 0.01 0.01 0.02 0.03 0.03 0.03 0.02 0.01 0.01 0.01 0.02 0.03 0.03 0.05 0.07 0.10 0.12 0.13 0.14 0.15 0.18 0.19 0.21 0.23 0.24 0.25 0.27 0.25 0.24 0.26 0.31 0.44 0.61 0.48
0.01 0.00 0.00 0.00 0.00 0.00 0.00 0.00 0.01 0.01 0.01 0.01 0.02 0.02 0.03 0.02 0.01 0.02 0.03 0.04 0.05 0.06 0.07 0.08 0.11 0.14 0.17 0.19 0.22 0.23 0.25 0.28 0.31 0.32 0.32 0.31 0.31 0.30 0.30 0.31 0.34 0.47 0.63
0.01 0.01 0.01 0.01 0.00 0.00 0.00 0.01 0.01 0.02 0.03 0.02 0.02 0.03 0.04 0.04 0.05 0.05 0.06 0.07 0.08 0.09 0.10 0.10 0.11 0.13 0.16 0.19 0.23 0.27 0.32 0.35 0.36 0.36 0.39 0.40 0.40 0.40 0.38 0.38 0.38 0.41 0.55
0.01 0.01 0.01 0.01 0.01 0.01 0.01 0.01 0.02 0.04 0.05 0.04 0.04 0.05 0.06 0.07 0.10 0.12 0.13 0.14 0.14 0.15 0.15 0.14 0.14 0.14 0.15 0.18 0.21 0.25 0.29 0.35 0.39 0.41 0.45 0.46 0.46 0.48 0.48 0.49 0.47 0.46 0.49
0.01 0.01 0.01 0.01 0.01 0.01 0.02 0.03 0.04 0.06 0.05 0.05 0.06 0.07 0.10 0.13 0.17 0.20 0.20 0.20 0.20 0.20 0.19 0.20 0.20 0.21 0.24 0.28 0.29 0.28 0.30 0.34 0.36 0.38 0.44 0.49 0.55 0.58 0.56 0.57 0.55 0.51 0.45
0.01 0.01 0.01 0.01 0.01 0.02 0.03 0.04 0.06 0.07 0.08 0.10 0.12 0.15 0.19 0.23 0.26 0.26 0.26 0.24 0.24 0.25 0.24 0.25 0.27 0.30 0.38 0.52 0.56 0.45 0.41 0.39 0.38 0.38 0.42 0.48 0.57 0.65 0.71 0.75 0.67 0.59 0.61
0.01 0.02 0.02 0.02 0.02 0.03 0.04 0.07 0.10 0.13 0.16 0.21 0.24 0.25 0.24 0.23 0.23 0.23 0.23 0.24 0.26 0.27 0.26 0.25 0.27 0.33 0.47 0.79 0.83 0.67 0.54 0.47 0.45 0.42 0.44 0.48 0.61 0.78 0.95 1.06 1.00 0.94 0.95
0.01 0.02 0.03 0.04 0.05 0.06 0.10 0.15 0.21 0.23 0.25 0.28 0.28 0.26 0.24 0.23 0.23 0.24 0.24 0.24 0.24 0.22 0.19 0.18 0.22 0.31 0.48 0.87 0.94 0.77 0.54 0.48 0.49 0.49 0.44 0.42 0.49 0.58 0.72 0.93 1.00 1.06 1.13
0.03 0.04 0.06 0.08 0.10 0.14 0.19 0.23 0.25 0.25 0.26 0.28 0.29 0.27 0.25 0.25 0.23 0.22 0.20 0.19 0.18 0.14 0.12 0.10 0.13 0.20 0.37 0.74 0.84 0.70 0.48 0.38 0.40 0.40 0.36 0.35 0.35 0.38 0.38 0.48 0.56 0.64 0.79
0.08 0.09 0.11 0.12 0.16 0.21 0.25 0.27 0.27 0.27 0.26 0.25 0.23 0.20 0.17 0.16 0.16 0.16 0.15 0.13 0.12 0.10 0.08 0.07 0.07 0.09 0.17 0.51 0.74 0.60 0.33 0.29 0.31 0.31 0.34 0.36 0.34 0.33 0.39 0.46 0.48 0.45 0.48
0.08 0.08 0.08 0.09 0.13 0.19 0.23 0.23 0.22 0.20 0.18 0.15 0.12 0.09 0.07 0.08 0.09 0.10 0.10 0.08 0.07 0.06 0.05 0.04 0.05 0.05 0.09 0.31 0.67 0.64 0.29 0.27 0.26 0.29 0.39 0.44 0.40 0.40 0.52 0.65 0.63 0.47 0.39
0.04 0.04 0.04 0.04 0.07 0.10 0.12 0.13 0.13 0.11 0.09 0.07 0.05 0.03 0.02 0.03 0.04 0.04 0.04 0.05 0.05 0.05 0.05 0.04 0.04 0.04 0.05 0.19 0.56 0.77 0.39 0.32 0.26 0.29 0.39 0.58 0.57 0.55 0.59 0.67 0.68 0.62 0.42
0.03 0.02 0.03 0.04 0.07 0.10 0.11 0.10 0.08 0.06 0.04 0.02 0.02 0.01 0.01 0.01 0.02 0.02 0.03 0.04 0.05 0.06 0.06 0.05 0.04 0.04 0.05 0.09 0.36 0.78 0.67 0.47 0.39 0.38 0.44 0.57 0.57 0.57 0.58 0.64 0.64 0.64 0.60
0.02 0.03 0.04 0.06 0.10 0.12 0.10 0.07 0.04 0.02 0.01 0.01 0.01 0.01 0.01 0.02 0.02 0.03 0.04 0.04 0.05 0.06 0.07 0.07 0.06 0.05 0.05 0.09 0.25 0.54 0.71 0.63 0.46 0.43 0.38 0.45 0.49 0.54 0.58 0.56 0.56 0.59 0.64
0.03 0.04 0.06 0.09 0.12 0.10 0.06 0.04 0.02 0.01 0.01 0.02 0.02 0.02 0.02 0.03 0.03 0.04 0.05 0.05 0.06 0.09 0.12 0.12 0.11 0.08 0.07 0.11 0.25 0.35 0.41 0.48 0.42 0.45 0.59 0.54 0.47 0.44 0.38 0.34 0.39 0.42 0.43
0.06 0.07 0.08 0.10 0.11 0.08 0.03 0.02 0.02 0.01 0.02 0.02 0.03 0.03 0.03 0.04 0.04 0.05 0.05 0.07 0.09 0.20 0.29 0.25 0.21 0.16 0.13 0.21 0.39 0.41 0.33 0.36 0.39 0.37 0.45 0.45 0.36 0.28 0.22 0.20 0.21 0.23 0.30
0.08 0.09 0.10 0.10 0.08 0.04 0.02 0.02 0.02 0.03 0.03 0.04 0.04 0.04 0.04 0.05 0.06 0.06 0.07 0.10 0.12 0.28 0.48 0.44 0.42 0.39 0.38 0.47 0.71 0.69 0.59 0.59 0.59 0.58 0.56 0.45 0.34 0.28 0.23 0.18 0.15 0.16 0.22
0.13 0.13 0.10 0.06 0.04 0.03 0.03 0.03 0.03 0.05 0.06 0.06 0.06 0.07 0.07 0.07 0.08 0.09 0.10 0.10 0.12 0.18 0.22 0.26 0.36 0.36 0.47 0.59 0.58 0.55 0.54 0.56 0.58 0.62 0.59 0.40 0.30 0.27 0.24 0.23 0.20 0.17 0.18